Ukiah, CA

7:25 PM PDT on September 29, 2016 (GMT -0700)
Ukiah Municipal

Weather History for KUKI - August, 2014

Change the Weather History Date:

Monday, August 18, 2014

  Actual Average Record
Temperature  
Mean Temperature 76 °F 72 °F  
Max Temperature 95 °F 92 °F 109 °F (1950)
Min Temperature 56 °F 54 °F 39 °F (1916)
Degree Days  
Heating Degree Days 0 0  
Month to date heating degree days 0  
Since 1 June heating degree days 33  
Since 1 July heating degree days 1  
Cooling Degree Days 9 7  
Month to date cooling degree days 151  
Year to date cooling degree days 594  
Since 1 June cooling degree days 542  
Growing Degree Days 24 (Base 50)    
Moisture  
Dew Point 51 °F    
Average Humidity 55    
Maximum Humidity 86    
Minimum Humidity 23    
Precipitation  
Precipitation 0.00 in 0.00 in 0.24 in (1976)
Month to date precipitation 0.01 0.01  
Year to date precipitation 16.64 23.43  
Since 1 July precipitation 0.01  
Snow  
Snow 0.00 in - - ()
Month to date snowfall 0.0  
Since 1 June snowfall 0.0  
Since 1 July snowfall 0.0  
Snow Depth -    
Sea Level Pressure  
Sea Level Pressure 29.80 in    
Wind  
Wind Speed 4 mph (SSE)    
Max Wind Speed 15 mph    
Max Gust Speed 20 mph    
Visibility 10 miles    
Events      
T = Trace of Precipitation, MM = Missing Value Source: NWS Daily Summary

Daily Weather History Graph

Daily Weather History Graph

Search for Another Location

Airport or City:

Trip Planner

Search our weather history database for the weather conditions in past years. The results will help you decide how hot, cold, wet, or windy it might be!

Date:

Astronomy

Aug. 18, 2014 Rise Set
Actual Time 6:28 AM PDT 8:03 PM PDT
Civil Twilight 6:00 AM PDT 8:31 PM PDT
Nautical Twilight 5:26 AM PDT 9:06 PM PDT
Astronomical Twilight 4:50 AM PDT 9:42 PM PDT
Moon 12:40 AM PDT (8/18) 3:11 PM PDT (8/18)
Length of Visible Light 14h 31m
Length of Day
13h 34m
Last Quarter, 37% of the Moon is Illuminated
Aug 18
Last Quarter
Aug 25
New
Sep 2
First Quarter
Sep 8
Full
Sep 15
Last Quarter

Hourly Weather History & Observations

Time (PDT) Temp. Heat Index Dew Point Humidity Pressure Visibility Wind Dir Wind Speed Gust Speed Precip Events Conditions
12:56 AM 64.0 °F - 48.9 °F 58% 29.86 in 10.0 mi Calm Calm - N/A   Clear
1:56 AM 62.1 °F - 46.9 °F 58% 29.85 in 10.0 mi Calm Calm - N/A   Clear
2:56 AM 61.0 °F - 46.9 °F 60% 29.85 in 10.0 mi Calm Calm - N/A   Clear
3:56 AM 60.1 °F - 51.1 °F 72% 29.85 in 9.0 mi South 4.6 mph - N/A   Clear
4:56 AM 57.9 °F - 50.0 °F 75% 29.85 in 10.0 mi South 3.5 mph - N/A   Clear
5:56 AM 57.0 °F - 51.1 °F 81% 29.84 in 10.0 mi South 3.5 mph - N/A   Clear
6:56 AM 55.9 °F - 51.1 °F 84% 29.86 in 10.0 mi SE 3.5 mph - N/A   Clear
7:56 AM 57.9 °F - 52.0 °F 81% 29.86 in 10.0 mi SSE 5.8 mph - N/A   Clear
8:56 AM 62.1 °F - 52.0 °F 70% 29.86 in 10.0 mi South 3.5 mph - N/A   Clear
9:56 AM 69.1 °F - 51.1 °F 53% 29.84 in 10.0 mi Calm Calm - N/A   Clear
10:56 AM 75.9 °F - 50.0 °F 40% 29.82 in 10.0 mi Variable 3.5 mph - N/A   Clear
11:56 AM 82.0 °F - 48.9 °F 31% 29.80 in 10.0 mi ENE 3.5 mph - N/A   Clear
12:56 PM 87.1 °F - 51.1 °F 29% 29.77 in 10.0 mi SSE 6.9 mph - N/A   Clear
1:56 PM 89.1 °F - 52.0 °F 28% 29.75 in 10.0 mi SSE 10.4 mph 19.6 mph N/A   Clear
2:56 PM 93.0 °F 90.6 °F 53.1 °F 26% 29.73 in 10.0 mi SE 12.7 mph - N/A   Clear
3:56 PM 93.9 °F - 50.0 °F 22% 29.72 in 10.0 mi North - - N/A   Clear
4:56 PM 91.9 °F - 48.9 °F 23% 29.72 in 10.0 mi SW 10.4 mph - N/A   Clear
5:56 PM 89.1 °F - 48.9 °F 25% 29.73 in 10.0 mi NNE 9.2 mph - N/A   Clear
6:56 PM 84.0 °F - 52.0 °F 33% 29.73 in 10.0 mi NNE 8.1 mph - N/A   Clear
7:56 PM 80.1 °F - 52.0 °F 38% 29.73 in 10.0 mi SSW 4.6 mph - N/A   Clear
9:56 PM 72.0 °F - 54.0 °F 53% 29.76 in 10.0 mi South 8.1 mph - N/A   Clear
10:56 PM 68.0 °F - 54.0 °F 61% 29.76 in 10.0 mi South 6.9 mph - N/A   Clear
11:56 PM 64.9 °F - 54.0 °F 68% 29.76 in 10.0 mi South 5.8 mph - N/A   Clear